Starlink 31913

operational
NORAD ID: 59667 Int'l Des: 2024-084 Owner: SPXS Country: US Constellation: starlink
LEOCIRCULAR

Starlink 31913について

説明を読み込み中...

リアルタイム位置

3D地球を読み込み中...

次回通過

高度履歴

Altitude vs Time

uPlot chart will show altitude changes over time

軌道要素

1 59667U 24084P 25260.14234807 -.00001046 00000-0 -28493-4 0 9998
2 59667 42.9949 298.2370 0001715 137.6858 222.4126 15.27570217 77870
Epoch: Sep 17, 2025 • Age: 8 hours

現在のステータス

高度 495.9 km
速度 7.62 km/s
衛星直下点 -39.42°S, 74.1°E
打ち上げ日 May 6, 2024
運用期間 1.3 years
タイプ internet

技術仕様

分類 Payload
質量 730.00 kg
乾燥質量 700.00 kg
総質量 730.00 kg
長さ 0.30 m
直径 4.10 m
スパン 29.00 m
形状 Box + pan
製造者 SPXS
バスタイプ Starlink V2M
フェーズステータス In Orbit
所有者/国 SPXS/US

大規模コンステレーション

Loading constellations...